DELTA 1 DEB (YO), 227

Orbit data source: Space-Track

DELTA 1 DEB (YO), 227 is space debris in LEO originally from a launch on Thu, 08 Feb 1962 UTC launched from the Air Force Eastern Test Range (AFETR). Debris objects in space refer to the collection of defunct objects orbiting the Earth. Examples of debris include non-operational satellites, rocket bodies, and fragments generated from explosions, collisions, or faulty payload assembly.

Loading next visibility...
Identifier
227, 1962-002B
Orbit
LEO
Country
Flag of USUS
Related business
Manufacturer
RCA/East Windsor
Mission
Spacecraft
Bus & Motor
Unknown
Mass
~1 kg wet, ~1 kg dry
Launch date (UTC)
1962-02-08 (64 years ago)
Launch vehicle
Unknown
Launch site
Air Force Eastern Test Range (AFETR)
Object type
Payload
Rocket body
Debris
Shape & HBR
Unknown shape, 0.1 m
Radar Cross Section
Small (<0.1 m²)

Expand to show TLE details & history
Last TLE update: 2 days ago

TLE from 2 days ago
0 DELTA 1 DEB (YO)
1   227U 62002B   26034.22911182  .00000307  00000-0  13584-3 0  9996
2   227  48.1461 231.3900 0127694 227.4156 131.5908 14.40646789324983
Epoch: 2026-02-03T05:29Z
TLE epoch observation values (Epoch: 2026-02-03T05:29:55.261Z)
Latitude
-0.00001°
Longitude
15.49669°
Altitude
817.811 km
Speed
7.414 km/s
True Right ascension
15h 25m 33s
True Declination
0° 00' 00"
Sunlit
Object was in daylight at epoch
Visualization orbit readout
Latitude
Unknown
Longitude
Unknown
Altitude
Unknown
Speed
Unknown
Apparent Right ascension
Unknown
Apparent Declination
Unknown
Sunlit
N/A
Visualization observer readout
Local Sidereal Time
23:26:50
Azimuth
Unknown
Elevation
Unknown
Doppler factor
Unknown
Orbital elements
Apogee altitude
848.519 km
Perigee altitude
666.286 km
Semi-major axis
7,135.54 km
Eccentricity
0.01277
Inclination
48.1461°
RAAN
231.39°
Arg. of periapsis
227.4156°
True anomaly
132.67364°
Mean anomaly
131.5908°
Eccentric anomaly
132.13337°
Mean motion
3.60083 °/min
Orbital period
99.98 mins
BSTAR
0.00013584
Loading maneuver chart data...
Computing Atmospheric mass density...
Loading historical data...
Loading historical data...
Loading historical data...
Loading historical data...
Loading historical data...
Loading historical data...
Loading historical data...
Other satellites on launch #2 in the year 1962 (1962-02-08 UTC)

Documentation

Showing up to 5 results
|